DW8492 Weather Reports


Display with metric or nautical units.
time (UTC)temp
F
wind
direction
speed
MPH
gust
MPH
rain 1hr
in
rain 24hr
in
rain mn
in
humidity
%
barometer
mb
20260503023011 36 360 0.0 0.0 0.00 0.03 0.03 83 1017.2
20260503021546 36 360 0.0 0.0 0.00 0.03 0.03 82 1017.2
20260503020011 37 360 0.0 0.0 0.00 0.03 0.03 79 1017.1
20260503014601 37 360 0.0 0.0 0.00 0.03 0.03 76 1017.1
20260503013048 38 360 0.0 0.0 0.00 0.03 0.03 74 1017.1
20260503011508 39 360 0.0 0.0 0.00 0.03 0.03 73 1017.1
20260503010048 39 360 0.0 3.0 0.00 0.03 0.03 72 1017.0
20260503004511 40 19 0.0 3.0 0.00 0.03 0.03 73 1016.9
20260503003049 40 9 1.0 5.0 0.00 0.03 0.03 70 1016.6
20260503000016 41 345 2.0 5.0 0.00 0.03 0.03 68 1016.5
20260502234556 41 355 3.0 8.0 0.00 0.06 0.03 68 1016.4
20260502233023 41 5 1.0 5.0 0.00 0.06 0.03 73 1016.2
20260502231609 41 355 1.0 7.0 0.00 0.06 0.03 74 1016.2
20260502230019 41 232 1.0 4.0 0.00 0.06 0.03 74 1016.3
20260502224556 41 345 1.0 4.0 0.00 0.11 0.03 74 1016.3
20260502223026 41 338 1.0 4.0 0.00 0.11 0.03 74 1016.3
20260502221513 41 228 2.0 4.0 0.00 0.11 0.03 73 1016.2
20260502220031 42 355 1.0 4.0 0.00 0.11 0.03 72 1016.2
20260502214600 42 286 3.0 8.0 0.00 0.12 0.03 73 1016.1
20260502213021 42 11 3.0 6.0 0.00 0.12 0.03 73 1016.1
20260502211601 44 43 2.0 9.0 0.00 0.12 0.03 71 1015.8
20260502210033 44 22 3.0 8.0 0.00 0.12 0.03 73 1015.8
20260502204607 42 13 3.0 7.0 0.00 0.15 0.03 75 1015.8
20260502203029 42 49 3.0 6.0 0.00 0.15 0.03 78 1015.8
20260502201609 41 30 3.0 7.0 0.00 0.15 0.03 79 1016.0
20260502200032 41 351 4.0 10.0 0.00 0.15 0.03 78 1016.0
20260502194617 42 34 2.0 9.0 0.00 0.18 0.03 76 1016.0
20260502193026 42 5 3.0 8.0 0.00 0.18 0.03 76 1016.0
20260502191530 42 26 1.0 9.0 0.00 0.18 0.03 76 1016.1
20260502190003 42 13 2.0 8.0 0.00 0.18 0.03 80 1016.2
20260502184549 42 28 2.0 6.0 0.00 0.23 0.03 82 1016.3
20260502183011 42 9 1.0 5.0 0.00 0.23 0.03 83 1016.4
20260502181555 41 350 3.0 6.0 0.00 0.23 0.03 86 1016.4
20260502163015 39 347 2.0 5.0 0.00 0.24 0.03 93 1016.3
20260502161559 39 15 1.0 4.0 0.00 0.24 0.03 94 1016.3
20260502151609 39 343 1.0 5.0 0.01 0.24 0.03 97 1015.8
20260502130109 37 259 0.0 2.0 0.01 0.22 0.01 97 1015.7
20260502123104 38 236 0.0 3.0 0.00 0.21 0.00 97 1015.9
20260502121527 37 234 0.0 2.0 0.00 0.21 0.00 97 1015.8
20260502114559 36 321 0.0 0.0 0.00 0.21 0.00 97 1016.0
20260502113025 35 321 0.0 0.0 0.00 0.21 0.00 96 1015.9
20260502111602 35 321 0.0 0.0 0.00 0.21 0.00 97 1015.9
20260502110034 34 321 0.0 0.0 0.00 0.21 0.00 97 1015.9
20260502104611 34 321 0.0 0.0 0.00 0.21 0.00 97 1016.0
20260502103043 34 319 0.0 0.0 0.00 0.21 0.00 97 1016.0
20260502101622 33 319 0.0 0.0 0.00 0.21 0.00 97 1016.1
20260502091501 31 319 0.0 0.0 0.00 0.21 0.00 96 1015.9
20260502070024 33 319 0.0 0.0 0.00 0.21 0.00 96 1015.8
20260502064556 32 319 0.0 0.0 0.00 0.21 0.00 96 1015.9
20260502063016 32 319 0.0 0.0 0.00 0.21 0.00 95 1016.0
20260502061552 32 319 0.0 0.0 0.00 0.21 0.00 95 1016.0
20260502060006 32 319 0.0 0.0 0.00 0.21 0.00 95 1016.0
20260502054535 33 319 0.0 0.0 0.00 0.21 0.00 95 1016.1
20260502053110 33 319 0.0 0.0 0.00 0.21 0.00 95 1016.2
20260502051605 33 319 0.0 0.0 0.00 0.21 0.00 95 1016.2
20260502050031 33 319 0.0 0.0 0.00 0.21 0.00 95 1016.2
20260502044608 34 319 0.0 0.0 0.00 0.21 0.00 95 1016.2
20260502043036 35 319 0.0 0.0 0.00 0.21 0.00 95 1016.3
20260502041505 36 319 0.0 0.0 0.00 0.21 0.00 95 1016.2
20260502040049 36 319 0.0 0.0 0.00 0.21 0.00 95 1016.2
20260502034514 36 319 0.0 0.0 0.00 0.21 0.21 95 1016.1
20260502033056 36 319 0.0 0.0 0.00 0.21 0.21 95 1015.8
20260502031520 37 319 0.0 0.0 0.00 0.21 0.21 95 1015.9
20260502030101 37 319 0.0 0.0 0.00 0.21 0.21 95 1016.0
20260502024535 38 319 0.0 0.0 0.00 0.21 0.21 95 1016.0